Silver City, NM

7:47 PM MST on December 09, 2019 (GMT -0700)
Grant County

Weather History for KSVC - October, 2019

Change the Weather History Date:

Wednesday, October 23, 2019

  Actual Average (KDMN) Record (KDMN)
Temperature  
Mean Temperature 56 °F -  
Max Temperature 75 °F 74 °F 88 °F (2016)
Min Temperature 37 °F 41 °F 27 °F (1996)
Degree Days  
Heating Degree Days 9    
Growing Degree Days 6 (Base 50)    
Moisture  
Dew Point 21 °F    
Average Humidity 29    
Maximum Humidity 54    
Minimum Humidity 10    
Precipitation  
Precipitation 0.00 in - - ()
Sea Level Pressure  
Sea Level Pressure 30.09 in    
Wind  
Wind Speed 8 mph (NW)    
Max Wind Speed 17 mph    
Max Gust Speed 23 mph    
Visibility 10 miles    
Events      
Averages and records for this station are not official NWS values.
T = Trace of Precipitation, MM = Missing Value Source: NWS Daily Summary

Daily Weather History Graph

Daily Weather History Graph

Search for Another Location

Airport or City:

Astronomy

Oct. 23, 2019 Rise Set
Actual Time 7:22 AM MDT 6:30 PM MDT
Civil Twilight 6:57 AM MDT 6:55 PM MDT
Nautical Twilight 6:28 AM MDT 7:24 PM MDT
Astronomical Twilight 6:00 AM MDT 7:53 PM MDT
Moon 2:08 AM MDT (10/23) 4:01 PM MDT (10/23)
Length of Visible Light 11h 58m
Length of Day
11h 08m
Waning Crescent, 26% of the Moon is Illuminated
Oct 23
Waning Crescent
Oct 27
New
Nov 4
First Quarter
Nov 12
Full
Nov 19
Last Quarter

Hourly Weather History & Observations

Time (MDT) Temp. Windchill Dew Point Humidity Pressure Visibility Wind Dir Wind Speed Gust Speed Precip Events Conditions
12:15 AM 39.4 °F 33.2 °F 21.2 °F 48% 30.17 in 10.0 mi North 9.2 mph - N/A   Clear
12:35 AM 42.1 °F 36.1 °F 21.0 °F 43% 30.16 in 10.0 mi North 10.4 mph - N/A   Clear
12:55 AM 42.6 °F 37.8 °F 21.2 °F 43% 30.16 in 10.0 mi North 8.1 mph - N/A   Clear
1:55 AM 39.7 °F 33.2 °F 21.0 °F 47% 30.15 in 10.0 mi North 10.4 mph - N/A   Clear
2:15 AM 39.2 °F 33.6 °F 20.7 °F 47% 30.15 in 10.0 mi North 8.1 mph - N/A   Clear
2:35 AM 39.6 °F 34.7 °F 21.2 °F 48% 30.15 in 10.0 mi NNW 6.9 mph - N/A   Clear
2:55 AM 38.7 °F 31.8 °F 20.8 °F 49% 30.14 in 10.0 mi NNW 10.4 mph - N/A   Clear
3:15 AM 38.3 °F 31.4 °F 20.8 °F 50% 30.14 in 10.0 mi NNW 10.4 mph - N/A   Clear
3:35 AM 37.6 °F 32.3 °F 21.0 °F 51% 30.13 in 10.0 mi NNW 6.9 mph - N/A   Clear
3:55 AM 38.7 °F 32.4 °F 21.0 °F 49% 30.13 in 10.0 mi NNW 9.2 mph - N/A   Clear
4:15 AM 38.5 °F 33.4 °F 20.7 °F 49% 30.13 in 10.0 mi NNW 6.9 mph - N/A   Clear
4:35 AM 39.7 °F 34.3 °F 21.0 °F 47% 30.12 in 10.0 mi WNW 8.1 mph - N/A   Clear
5:15 AM 39.9 °F 35.1 °F 21.2 °F 47% 30.12 in 10.0 mi NNW 6.9 mph - N/A   Clear
5:35 AM 39.2 °F 34.2 °F 21.9 °F 50% 30.12 in 10.0 mi NW 6.9 mph - N/A   Clear
5:55 AM 38.3 °F 32.5 °F 21.6 °F 51% 30.12 in 10.0 mi NW 8.1 mph - N/A   Clear
6:15 AM 39.6 °F 34.7 °F 22.1 °F 50% 30.13 in 10.0 mi NNW 6.9 mph - N/A   Clear
6:35 AM 41.7 °F 35.6 °F 22.6 °F 47% 30.13 in 10.0 mi NW 10.4 mph - N/A   Clear
6:55 AM 38.7 °F 31.8 °F 22.5 °F 52% 30.12 in 10.0 mi NW 10.4 mph - N/A   Clear
7:15 AM 38.1 °F 31.7 °F 22.8 °F 54% 30.13 in 10.0 mi NW 9.2 mph - N/A   Clear
7:35 AM 38.3 °F 31.4 °F 23.0 °F 54% 30.13 in 10.0 mi NNW 10.4 mph - N/A   Clear
7:55 AM 41.7 °F 36.1 °F 23.9 °F 49% 30.13 in 10.0 mi NNW 9.2 mph - N/A   Clear
8:15 AM 46.2 °F 41.7 °F 24.1 °F 42% 30.13 in 10.0 mi NNW 9.2 mph - N/A   Clear
8:35 AM 51.1 °F - 24.4 °F 35% 30.14 in 10.0 mi NNW 8.1 mph - N/A   Clear
8:55 AM 55.0 °F - 24.6 °F 31% 30.15 in 10.0 mi NW 5.8 mph - N/A   Clear
9:15 AM 57.7 °F - 24.8 °F 28% 30.15 in 10.0 mi NNW 6.9 mph - N/A   Clear
9:35 AM 59.9 °F - 23.4 °F 25% 30.15 in 10.0 mi WNW 4.6 mph - N/A   Clear
9:55 AM 61.5 °F - 23.7 °F 24% 30.16 in 10.0 mi West 3.5 mph - N/A   Clear
10:15 AM 62.8 °F - 23.0 °F 22% 30.16 in 10.0 mi SW 3.5 mph - N/A   Clear
10:35 AM 64.0 °F - 23.4 °F 21% 30.15 in 10.0 mi South 3.5 mph - N/A   Clear
10:55 AM 65.1 °F - 22.8 °F 20% 30.15 in 10.0 mi South 5.8 mph - N/A   Clear
11:15 AM 66.6 °F - 20.8 °F 18% 30.14 in 10.0 mi SSW 4.6 mph - N/A   Clear
11:35 AM 67.5 °F - 22.6 °F 18% 30.13 in 10.0 mi Calm Calm - N/A   Clear
11:55 AM 68.5 °F - 21.6 °F 17% 30.13 in 10.0 mi SSW 4.6 mph - N/A   Clear
12:15 PM 68.4 °F - 20.1 °F 16% 30.13 in 10.0 mi Calm Calm - N/A   Clear
12:35 PM 69.6 °F - 20.5 °F 16% 30.12 in 10.0 mi Calm Calm - N/A   Clear
12:55 PM 70.5 °F - 19.9 °F 15% 30.10 in 10.0 mi NW 3.5 mph - N/A   Clear
1:15 PM 70.5 °F - 19.9 °F 15% 30.09 in 10.0 mi SE 3.5 mph - N/A   Clear
1:35 PM 72.0 °F - 21.2 °F 15% 30.08 in 10.0 mi South 5.8 mph - N/A   Clear
1:55 PM 72.5 °F - 22.5 °F 15% 30.07 in 10.0 mi South 5.8 mph - N/A   Clear
2:15 PM 72.9 °F - 22.6 °F 15% 30.06 in 10.0 mi SW 5.8 mph - N/A   Clear
2:35 PM 72.5 °F - 22.8 °F 16% 30.04 in 10.0 mi NNW 3.5 mph - N/A   Clear
2:55 PM 73.6 °F - 22.6 °F 15% 30.03 in 10.0 mi WSW 8.1 mph - N/A   Clear
3:15 PM 74.8 °F - 17.4 °F 11% 30.03 in 10.0 mi WSW 5.8 mph - N/A   Clear
3:35 PM 75.2 °F - 17.4 °F 11% 30.02 in 10.0 mi West 17.3 mph - N/A   Clear
3:55 PM 75.4 °F - 18.1 °F 12% 30.02 in 10.0 mi West 11.5 mph 17.3 mph N/A   Clear
4:15 PM 74.3 °F - 15.6 °F 11% 30.02 in 10.0 mi West 13.8 mph 19.6 mph N/A   Clear
4:35 PM 74.5 °F - 14.4 °F 10% 30.02 in 10.0 mi West 15.0 mph 21.9 mph N/A   Clear
4:55 PM 73.4 °F - 15.8 °F 11% 30.02 in 10.0 mi West 17.3 mph 23.0 mph N/A   Clear
5:15 PM 72.0 °F - 16.5 °F 12% 30.02 in 10.0 mi West 13.8 mph 23.0 mph N/A   Clear
5:35 PM 71.4 °F - 15.8 °F 12% 30.02 in 10.0 mi West 12.7 mph 18.4 mph N/A   Clear
5:55 PM 70.5 °F - 15.3 °F 12% 30.02 in 10.0 mi West 13.8 mph 19.6 mph N/A   Clear
6:15 PM 68.5 °F - 17.6 °F 14% 30.02 in 10.0 mi West 9.2 mph - N/A   Clear
6:35 PM 66.2 °F - 18.3 °F 16% 30.01 in 10.0 mi WSW 5.8 mph - N/A   Clear
6:55 PM 63.5 °F - 18.1 °F 17% 30.02 in 10.0 mi West 4.6 mph - N/A   Clear
7:15 PM 56.3 °F - 18.3 °F 23% 30.02 in 10.0 mi WNW 8.1 mph - N/A   Clear
7:35 PM 55.0 °F - 18.5 °F 24% 30.02 in 10.0 mi WNW 8.1 mph - N/A   Clear
7:55 PM 52.3 °F - 18.7 °F 27% 30.03 in 10.0 mi NW 10.4 mph - N/A   Clear
8:15 PM 52.9 °F - 19.4 °F 27% 30.03 in 10.0 mi NNW 9.2 mph - N/A   Clear
8:35 PM 58.1 °F - 19.8 °F 23% 30.04 in 10.0 mi NNW 8.1 mph - N/A   Clear
8:55 PM 54.9 °F - 19.8 °F 25% 30.04 in 10.0 mi NNW 5.8 mph - N/A   Clear
9:15 PM 52.3 °F - 20.5 °F 29% 30.04 in 10.0 mi NNE 9.2 mph - N/A   Clear
9:35 PM 55.6 °F - 20.3 °F 25% 30.04 in 10.0 mi North 10.4 mph - N/A   Clear
9:55 PM 56.1 °F - 20.3 °F 25% 30.05 in 10.0 mi North 10.4 mph - N/A   Clear
10:15 PM 54.5 °F - 19.4 °F 25% 30.05 in 10.0 mi NNW 10.4 mph - N/A   Clear
10:35 PM 52.2 °F - 19.6 °F 28% 30.06 in 10.0 mi North 10.4 mph - N/A   Clear
10:55 PM 51.6 °F - 19.8 °F 29% 30.06 in 10.0 mi North 6.9 mph - N/A   Clear
11:15 PM 50.4 °F - 20.3 °F 31% 30.06 in 10.0 mi North 9.2 mph - N/A   Clear
11:35 PM 51.8 °F - 21.0 °F 30% 30.06 in 10.0 mi North 8.1 mph - N/A   Clear
11:55 PM 49.6 °F - 21.9 °F 34% 30.05 in 10.0 mi North 10.4 mph - N/A   Clear